Terug naar catalogus

STARLINK-1046

ActiefCommunicatieVLEO
NORAD 44751·PAYLOAD·🇺🇸 United States

Gelanceerd Nov 11, 2019 vanaf Cape Canaveral Space Force Station

Loading…

Volgende Passages (komende 24 uur)

TLE

VersSource: CelesTrak SupGP

Epoch: Sep 14, 2026, 19:33 UTC

1 44751C 19074AQ  26257.81506944  .00089117  00000+0  70088-3 0  2579
2 44751  53.0427  14.3505 0002578 343.4975 250.6289 15.70767711    14

Volg STARLINK-1046 in realtime met AllMySat

Download on the App Store